This is the latest recevied weather packets stored in our database for station/object WE1C. If no packets are shown the sender has not sent any weather packets the latest 10 day(s).
| Time | Temp. | Humidity | Pressure | Rain* | Wind** | Luminosity | Snow |
|---|---|---|---|---|---|---|---|
| 1777806025 | 3.33° C | 77% | 1036.3 hPa | 0 mm | - | 47 W/m² | - |
| 1777805721 | 3.33° C | 77% | 1036.2 hPa | 0 mm | - | 42 W/m² | - |
| 1777805419 | 2.78° C | 79% | 1036.4 hPa | 0 mm | - | 39 W/m² | - |
| 1777805117 | 2.78° C | 80% | 1036.3 hPa | 0 mm | - | 36 W/m² | - |
| 1777804814 | 2.78° C | 80% | 1036.2 hPa | 0 mm | - | 31 W/m² | - |
| 1777804512 | 2.22° C | 80% | 1036.4 hPa | 0 mm | - | 25 W/m² | - |
| 1777804209 | 2.22° C | 79% | 1036.5 hPa | 0 mm | - | 21 W/m² | - |
| 1777803906 | 2.22° C | 80% | 1036.6 hPa | 0 mm | - | 20 W/m² | - |
| 1777803603 | 2.22° C | 79% | 1036.6 hPa | 0 mm | - | 16 W/m² | - |
| 1777803299 | 2.22° C | 80% | 1036.8 hPa | 0 mm | - | 13 W/m² | - |
| 1777802996 | 2.22° C | 79% | 1036.8 hPa | 0 mm | - | 12 W/m² | - |
| 1777802694 | 2.22° C | 79% | 1036.5 hPa | 0 mm | - | 10 W/m² | - |
| 1777802391 | 2.78° C | 79% | 1036.8 hPa | 0 mm | - | 8 W/m² | - |
| 1777802089 | 2.78° C | 78% | 1036.7 hPa | 0 mm | - | 7 W/m² | - |
| 1777801787 | 2.78° C | 78% | 1036.9 hPa | 0 mm | - | 4 W/m² | - |
| 1777801484 | 2.78° C | 78% | 1036.9 hPa | 0 mm | - | 3 W/m² | - |
| 1777801180 | 3.33° C | 78% | 1036.9 hPa | 0 mm | - | 0 W/m² | - |
| 1777800877 | 3.33° C | 76% | 1036.7 hPa | 0 mm | - | 0 W/m² | - |
| 1777800573 | 3.33° C | 76% | 1036.7 hPa | 0 mm | - | 0 W/m² | - |
| 1777800269 | 3.33° C | 75% | 1036.4 hPa | 0 mm | - | 0 W/m² | - |
| 1777799965 | 3.33° C | 75% | 1036.7 hPa | 0 mm | - | 0 W/m² | - |
| 1777799662 | 3.33° C | 76% | 1036.9 hPa | 0 mm | - | 0 W/m² | - |
| 1777799358 | 3.33° C | 75% | 1036.9 hPa | 0 mm | - | 0 W/m² | - |
| 1777799054 | 3.33° C | 74% | 1036.8 hPa | 0 mm | - | 0 W/m² | - |
| 1777798750 | 3.33° C | 76% | 1036.9 hPa | 0 mm | - | 0 W/m² | - |
* Rain latest hour (hover to see other rain measurements)
** Current wind speed in m/s (hover to see current wind gust speed)